Flag for U.S.A. Weather past 2 weeks in Ocala, Florida, U.S.A.

Now
61 °F

Sunny.


Feels Like: 61 °F
Forecast: 46 / 60 °F
Wind: 14 mph from West

Location: Ocala Municipal

Current Time: Jan 26, 2015 at 3:38:35 PM

Latest Report: Jan 26, 2015 at 2:50 PM


Visibility: 10 mi

Pressure: 29.85 "Hg

Humidity: 39%

Dew point: 36 °F

Location of OcalaLocation

Historic Weather in Ocala — Graph

°F

Ocala temperature yesterday

Maximum temperature yesterday: 63 °F (at 2:50 PM)
Minimum temperature yesterday: 34 °F (at 7:50 AM)
Average temperature yesterday: 45 °F

Past Weeks' High & Low Weather Summary

 TemperatureHumidityPressure
High75 °F (Jan 21, 1:50 PM)100% (Jan 15, 6:50 AM)30.32 "Hg (Jan 15, 6:50 AM)
Low34 °F (Jan 19, 6:15 AM)23% (Jan 19, 3:50 PM)29.78 "Hg (Jan 24, 2:55 AM)
Average55 °F82%30.10 "Hg
* Reported Jan 11 1:50 PM — Jan 26 1:50 PM, Ocala, Weather by CustomWeather, © 2014

Note: Actual official high and low records may vary slightly from our data, if they occured in-between our weather recording intervals... More about our weather records

Advertising

Ocala weather history for previous 24 hours

 ConditionsComfort  
Time TempWeatherWind HumidityBarometerVisibility
1:50 PM
Jan 26
61 °FPassing clouds.14 mph39%29.85 "Hg10 mi
12:50 PM61 °FPassing clouds.18 mph39%29.86 "Hg10 mi
11:50 AM61 °FScattered clouds.20 mph45%29.90 "Hg10 mi
10:50 AM57 °FSunny.15 mph51%29.92 "Hg10 mi
9:50 AM55 °FSunny.17 mph63%29.92 "Hg10 mi
8:50 AM55 °FSunny.12 mph72%29.90 "Hg10 mi
7:50 AM54 °FSunny.7 mph82%29.86 "Hg10 mi
6:50 AM54 °FClear.9 mph82%29.84 "Hg10 mi
6:35 AM54 °FClear.7 mph82%29.84 "Hg10 mi
5:55 AM54 °FPassing clouds.5 mph88%29.83 "Hg10 mi
5:35 AM54 °FPassing clouds.5 mph88%29.83 "Hg10 mi
4:55 AM55 °FMostly cloudy.5 mph88%29.83 "Hg10 mi
4:35 AM55 °FOvercast.5 mph88%29.83 "Hg10 mi
4:15 AM55 °FMostly cloudy.5 mph88%29.85 "Hg10 mi
3:55 AM55 °FPartly cloudy.9 mph88%29.82 "Hg10 mi
3:35 AM55 °FPartly cloudy.12 mph88%29.83 "Hg9 mi
3:15 AM55 °FMostly cloudy.12 mph88%29.84 "Hg8 mi
2:55 AM55 °FMostly cloudy.10 mph82%29.84 "Hg10 mi
2:35 AM55 °FPassing clouds.7 mph82%29.85 "Hg10 mi
2:15 AM55 °FPassing clouds.8 mph77%29.85 "Hg10 mi
1:55 AM54 °FClear.8 mph82%29.85 "Hg10 mi
1:35 AM54 °FClear.8 mph82%29.87 "Hg10 mi
1:15 AM52 °FPassing clouds.8 mph82%29.88 "Hg10 mi
12:55 AM52 °FClear.6 mph82%29.89 "Hg10 mi
12:35 AM52 °FClear.6 mph82%29.90 "Hg10 mi
12:15 AM52 °FClear.5 mph82%29.91 "Hg10 mi
11:55 PM
Jan 25
52 °FClear.6 mph82%29.91 "Hg10 mi
11:35 PM52 °FClear.7 mph82%29.92 "Hg10 mi
11:15 PM52 °FClear.7 mph77%29.93 "Hg10 mi
10:55 PM52 °FClear.7 mph77%29.94 "Hg10 mi
10:15 PM50 °FClear.7 mph82%29.95 "Hg10 mi
9:55 PM50 °FClear.7 mph76%29.96 "Hg10 mi
9:35 PM50 °FClear.7 mph76%29.95 "Hg10 mi
9:15 PM50 °FClear.5 mph76%29.96 "Hg10 mi
8:55 PM48 °FClear.6 mph82%29.96 "Hg10 mi
8:35 PM48 °FClear.5 mph76%29.99 "Hg10 mi
8:15 PM50 °FClear.7 mph76%29.98 "Hg10 mi
7:55 PM48 °FClear.6 mph82%30.00 "Hg10 mi
6:50 PM52 °FClear.7 mph72%29.99 "Hg10 mi
5:50 PM59 °FSunny.7 mph55%29.99 "Hg10 mi
4:50 PM61 °FSunny.9 mph48%29.97 "Hg10 mi
3:50 PM63 °FSunny.9 mph42%29.97 "Hg10 mi
Weather by CustomWeather, © 2014

See weather overviewHow to use our weather pages